Weather History for Duluth, MN

Change the Weather History Date:

Monday, October 8, 2012

  Actual Average Record
Temperature  
Mean Temperature 42 °F 46 °F  
Max Temperature 47 °F 55 °F 82 °F (1943)
Min Temperature 36 °F 37 °F 24 °F (1989)
Degree Days  
Heating Degree Days 23 19  
Month to date heating degree days 158 139  
Since 1 July heating degree days 486 586  
Cooling Degree Days 0 0  
Month to date cooling degree days 0 0  
Year to date cooling degree days 409 204  
Moisture  
Dew Point 31 °F    
Average Humidity 67    
Maximum Humidity 86    
Minimum Humidity 48    
Precipitation  
Precipitation 0.10 in 0.09 in 2.64 in (1949)
Month to date precipitation 0.10 0.88  
Year to date precipitation 29.19 25.69  
Snow  
Snow 0.00 in 0.10 in 6.50 in (1925)
Month to date snowfall T 0.2  
Since 1 July snowfall 0.1 0.3  
Since 1 September snowfall 0.1 0.3  
Snow Depth 0.00 in    
Sea Level Pressure  
Sea Level Pressure 29.67 in    
Wind  
Wind Speed 10 mph (SW)    
Max Wind Speed 24 mph    
Max Gust Speed 32 mph    
Visibility 10 miles    
Events Rain    
T = Trace of Precipitation, MM = Missing Value Source: NWS Daily Summary

Daily Weather History Graph

Daily Weather History Graph

Search for Another Location

Airport:

Trip Planner

Search our weather history database for the weather conditions in past years. The results will help you decide how hot, cold, wet, or windy it might be!

Date:

Astronomy

Oct. 08, 2012 Rise Set
Actual Time 7:17 AM CDT 6:33 PM CDT
Civil Twilight 6:47 AM CDT 7:04 PM CDT
Nautical Twilight 6:12 AM CDT 7:39 PM CDT
Astronomical Twilight 5:36 AM CDT 8:14 PM CDT
Moon No Moon Rise 2:46 PM CDT (10/8)
Length of Visible Light 12h 16m
Length of Day
11h 16m
Last Quarter, 46% of the Moon is Illuminated
Oct 8
Last Quarter
Oct 15
New
Oct 21
First Quarter
Oct 29
Full
Nov 6
Last Quarter

Hourly Weather History & Observations

Time (CDT) Temp. Windchill Dew Point Humidity Pressure Visibility Wind Dir Wind Speed Gust Speed Precip Events Conditions
12:55 AM 37.9 °F 30.5 °F 19.0 °F 47% 29.84 in 10.0 mi SW 11.5 mph - N/A   Clear
1:55 AM 36.0 °F 30.3 °F 19.0 °F 50% 29.83 in 10.0 mi SSW 6.9 mph - N/A   Clear
2:55 AM 37.0 °F 30.4 °F 19.0 °F 48% 29.82 in 10.0 mi SSW 9.2 mph - N/A   Clear
3:55 AM 37.0 °F 29.8 °F 21.0 °F 52% 29.80 in 10.0 mi SSW 10.4 mph - N/A   Clear
4:55 AM 37.9 °F 30.5 °F 21.9 °F 53% 29.78 in 10.0 mi SSW 11.5 mph - N/A   Clear
5:55 AM 37.9 °F 30.9 °F 21.9 °F 53% 29.76 in 10.0 mi SW 10.4 mph - N/A   Partly Cloudy
6:55 AM 37.0 °F 30.4 °F 21.9 °F 54% 29.75 in 10.0 mi SSW 9.2 mph - N/A   Partly Cloudy
7:55 AM 37.0 °F 31.6 °F 23.0 °F 57% 29.76 in 10.0 mi South 6.9 mph - N/A   Scattered Clouds
8:55 AM 37.9 °F 31.5 °F 24.1 °F 57% 29.75 in 10.0 mi South 9.2 mph - N/A   Mostly Cloudy
9:55 AM 42.1 °F 37.1 °F 24.1 °F 49% 29.73 in 10.0 mi South 8.1 mph - N/A   Overcast
10:55 AM 42.1 °F 36.1 °F 25.0 °F 51% 29.70 in 10.0 mi South 10.4 mph - N/A   Overcast
11:55 AM 44.1 °F 38.1 °F 26.1 °F 49% 29.68 in 10.0 mi SE 11.5 mph - N/A   Overcast
12:55 PM 45.0 °F 39.3 °F 28.0 °F 52% 29.65 in 10.0 mi South 11.5 mph - 0.00 in Rain Light Rain
1:55 PM 46.9 °F - 28.0 °F 48% 29.62 in 10.0 mi South 10.4 mph - 0.00 in   Overcast
2:55 PM 46.4 °F 41.1 °F 33.8 °F 62% 29.56 in 10.0 mi SSE 11.5 mph - N/A Rain Light Rain
3:55 PM 42.1 °F 37.7 °F 37.0 °F 82% 29.60 in 10.0 mi SSE 6.9 mph - 0.02 in Rain Light Rain
4:55 PM 44.1 °F 40.1 °F 39.0 °F 82% 29.59 in 7.0 mi SSW 6.9 mph - 0.06 in Rain Light Rain
5:55 PM 44.1 °F 40.1 °F 39.9 °F 85% 29.58 in 10.0 mi South 6.9 mph - 0.01 in   Overcast
6:48 PM 44.6 °F 39.2 °F 39.2 °F 81% 29.56 in 10.0 mi SW 10.4 mph - N/A   Overcast
6:55 PM 45.0 °F 38.9 °F 39.9 °F 82% 29.60 in 10.0 mi SW 12.7 mph - N/A   Overcast
7:21 PM 46.4 °F 40.7 °F 41.0 °F 81% 29.56 in 10.0 mi WSW 12.7 mph - N/A   Overcast
7:47 PM 46.4 °F 40.7 °F 42.8 °F 87% 29.57 in 10.0 mi West 12.7 mph - N/A   Overcast
7:55 PM 46.9 °F - 42.1 °F 83% 29.61 in 10.0 mi West 12.7 mph - N/A   Overcast
8:55 PM 46.9 °F - 43.0 °F 86% 29.62 in 10.0 mi West 15.0 mph - 0.00 in Rain Light Rain
9:07 PM 46.4 °F 39.8 °F 42.8 °F 87% 29.59 in 10.0 mi WNW 16.1 mph 28.8 mph 0.00 in   Overcast
9:32 PM 44.6 °F 37.8 °F 39.2 °F 81% 29.60 in 10.0 mi West 15.0 mph 26.5 mph 0.00 in   Overcast
9:55 PM 45.0 °F 37.9 °F 39.0 °F 80% 29.64 in 10.0 mi West 16.1 mph 24.2 mph 0.00 in   Overcast
10:55 PM 43.0 °F 36.0 °F 36.0 °F 76% 29.65 in 10.0 mi WNW 13.8 mph 25.3 mph N/A   Mostly Cloudy
11:18 PM 42.8 °F 37.0 °F 37.4 °F 81% 29.62 in 10.0 mi West 10.4 mph - N/A   Scattered Clouds
11:55 PM 41.0 °F 35.2 °F 37.0 °F 86% 29.65 in 10.0 mi West 9.2 mph - N/A   Clear